TimePDT,TemperatureF,Dew PointF,Humidity,Sea Level PressureIn,VisibilityMPH,Wind Direction,Wind SpeedMPH,Gust SpeedMPH,PrecipitationIn,Events,Conditions,WindDirDegrees,DateUTC
12:53 AM,66.0,30.9,27,29.81,10.0,West,10.4,-,N/A,,Clear,260,2013-03-27 07:53:00
1:53 AM,63.0,30.9,30,29.80,10.0,West,9.2,-,N/A,,Clear,270,2013-03-27 08:53:00
2:53 AM,63.0,28.9,28,29.79,10.0,West,8.1,-,N/A,,Clear,280,2013-03-27 09:53:00
3:53 AM,62.1,34.0,35,29.79,10.0,West,5.8,-,N/A,,Clear,270,2013-03-27 10:53:00
4:53 AM,64.0,30.0,28,29.80,10.0,West,5.8,-,N/A,,Clear,270,2013-03-27 11:53:00
5:53 AM,62.1,30.0,30,29.81,10.0,WNW,5.8,-,N/A,,Clear,290,2013-03-27 12:53:00
6:53 AM,64.0,26.1,24,29.83,10.0,WNW,3.5,-,N/A,,Clear,300,2013-03-27 13:53:00
7:53 AM,68.0,28.0,22,29.85,10.0,Calm,Calm,-,N/A,,Clear,0,2013-03-27 14:53:00
8:53 AM,73.0,32.0,22,29.86,10.0,Variable,3.5,-,N/A,,Clear,0,2013-03-27 15:53:00
9:53 AM,78.1,36.0,22,29.87,10.0,West,12.7,-,N/A,,Clear,260,2013-03-27 16:53:00
10:53 AM,80.1,30.9,17,29.87,10.0,West,11.5,-,N/A,,Clear,270,2013-03-27 17:53:00
11:53 AM,82.0,33.1,17,29.88,10.0,WSW,11.5,-,N/A,,Clear,250,2013-03-27 18:53:00
12:53 PM,82.0,32.0,16,29.86,10.0,West,8.1,-,N/A,,Clear,270,2013-03-27 19:53:00
1:53 PM,84.9,28.9,13,29.84,10.0,West,3.5,-,N/A,,Clear,270,2013-03-27 20:53:00
2:53 PM,89.1,28.9,12,29.81,10.0,SW,16.1,20.7,N/A,,Clear,230,2013-03-27 21:53:00
3:53 PM,89.1,30.0,12,29.81,10.0,SW,18.4,23.0,N/A,,Clear,230,2013-03-27 22:53:00
4:53 PM,82.9,37.9,20,29.81,10.0,West,15.0,-,N/A,,Clear,260,2013-03-27 23:53:00
5:53 PM,80.1,37.9,22,29.82,10.0,WSW,12.7,20.7,N/A,,Clear,250,2013-03-28 00:53:00
6:53 PM,77.0,34.0,21,29.83,10.0,West,16.1,-,N/A,,Clear,260,2013-03-28 01:53:00
7:53 PM,73.9,34.0,23,29.85,10.0,West,15.0,-,N/A,,Clear,260,2013-03-28 02:53:00
8:53 PM,73.0,36.0,26,29.87,10.0,West,13.8,23.0,N/A,,Clear,270,2013-03-28 03:53:00
9:53 PM,69.1,37.9,32,29.90,10.0,West,10.4,-,N/A,,Clear,270,2013-03-28 04:53:00
10:53 PM,68.0,32.0,26,29.90,10.0,West,16.1,-,N/A,,Clear,260,2013-03-28 05:53:00
11:53 PM,68.0,33.1,27,29.91,10.0,West,15.0,-,N/A,,Clear,260,2013-03-28 06:53:00